This is the latest recevied weather packets stored in our database for station/object MDJB. If no packets are shown the sender has not sent any weather packets the latest 10 day(s).
| Time | Temp. | Humidity | Pressure | Rain* | Wind** | Luminosity | Snow |
|---|---|---|---|---|---|---|---|
| 1787836450 | 29.44° C | 73% | 1014 hPa | 0 mm | - | - | - |
| 1787835854 | 29.44° C | 74% | 1015 hPa | 0 mm | - | - | - |
| 1787835249 | 29.44° C | 74% | 1015 hPa | 0 mm | - | - | - |
| 1787834648 | 28.89° C | 77% | 1015 hPa | 0 mm | - | - | - |
| 1787834047 | 27.22° C | 82% | 1015 hPa | 0 mm | - | - | - |
| 1787833447 | 27.78° C | 82% | 1014 hPa | 0 mm | - | - | - |
| 1787832846 | 27.78° C | 81% | 1014 hPa | 0 mm | - | - | - |
| 1787832245 | 27.78° C | 79% | 1014 hPa | 0 mm | - | - | - |
| 1787831645 | 27.22° C | 79% | 1015 hPa | 0 mm | - | - | - |
| 1787831044 | 25.56° C | 81% | 1015 hPa | 0 mm | - | - | - |
| 1787830444 | 25.56° C | 81% | 1015 hPa | 0 mm | - | - | - |
| 1787829843 | 26.11° C | 81% | 1014 hPa | 0 mm | - | - | - |
| 1787829243 | 26.11° C | 81% | 1014 hPa | 0 mm | - | - | - |
| 1787828642 | 26.11° C | 82% | 1015 hPa | 0 mm | - | - | - |
| 1787828041 | 26.11° C | 83% | 1015 hPa | 0 mm | - | - | - |
| 1787827440 | 26.11° C | 82% | 1015 hPa | 0 mm | - | - | - |
| 1787826840 | 26.11° C | 82% | 1015 hPa | 0 mm | - | - | - |
| 1787826239 | 26.11° C | 83% | 1013 hPa | 0 mm | - | - | - |
| 1787825638 | 26.11° C | 83% | 1014 hPa | 0 mm | - | - | - |
| 1787825038 | 26.11° C | 83% | 1014 hPa | 0 mm | - | - | - |
| 1787824437 | 26.11° C | 83% | 1014 hPa | 0 mm | - | - | - |
| 1787823836 | 26.11° C | 83% | 1014 hPa | 0 mm | - | - | - |
| 1787823236 | 26.11° C | 82% | 1014 hPa | 0 mm | - | - | - |
| 1787822635 | 26.11° C | 82% | 1013 hPa | 0 mm | - | - | - |
| 1787822034 | 26.11° C | 82% | 1013 hPa | 0 mm | - | - | - |
* Rain latest hour (hover to see other rain measurements)
** Current wind speed in m/s (hover to see current wind gust speed)